Regional Weather Roundup
Issued by NWS

Home | Current Version | Previous Version | Graphics & Text | Print | Product List | Glossary On
Versions: 1 2 3 4 5 6 7 8 9 10 11 12 13 14 15 16 17 18 19 20 21 22 23 24 25 26 27 28 29 30 31 32 33 34 35 36 37 38 39 40 41 42 43 44 45 46 47 48 49 50
000
ASUS43 KLOT 020158
RWRIL

ILLINOIS REGIONAL WEATHER ROUNDUP
NATIONAL WEATHER SERVICE CHICAGO/ROMEOVILLE IL
900 PM CDT MON SEP 01 2014

NOTE: "FAIR" INDICATES FEW OR NO CLOUDS BELOW 12,000 FEET WITH NO
SIGNIFICANT WEATHER AND/OR OBSTRUCTIONS TO VISIBILITY.

* THESE STATIONS ARE NOT UNDER NWS QUALITY CONTROL. THEY ALSO MAY NOT
  REPORT WEATHER SUCH AS PRECIPITATION OR FOG.

ILZ001-002-007-009-015-016-024-020300-
NORTHWEST ILLINOIS

CITY           SKY/WX    TMP DP  RH WIND       PRES   REMARKS
MOLINE         PTCLDY    72  66  81 W5        29.84R
$$

ILZ003-004-008-010-011-017-018-020300-
NORTH CENTRAL ILLINOIS

CITY           SKY/WX    TMP DP  RH WIND       PRES   REMARKS
ROCKFORD       NOT AVBL
$$

ILZ005-006-012>014-019>023-020300-
NORTHEAST ILLINOIS

CITY           SKY/WX    TMP DP  RH WIND       PRES   REMARKS
CHICAGO-OHARE  MOCLDY    77  63  61 SW10      29.82R
CHICAGO-MIDWAY PTCLDY    77  67  71 SW9       29.83R
AURORA         CLEAR     73  65  75 SW10      29.84R
WAUKEGAN       MOCLDY    70  65  84 SW5       29.80R
DUPAGE AIRPORT CLEAR     74  65  73 SW10      29.83R
WHEELING       LGT RAIN  72  67  84 W6        29.84R
NORTHERLY ISL    N/A     78  64  61 SW10        N/A  HX  80
$$

LMZ740>746-020300-
SOUTHERN LAKE MICHIGAN

STATION/POSITION SKY/WX   TEMP    WIND        PRES    VSBY  WAVE
                          AIR SEA DIR/SP/G                  HT/PER
                          (F)     (DEG/KT/KT) (MB)    (MI)  (FT/S)
SOUTHERN BUOY              72 70  210/  8/ 10 1007.6R         1/ 4
WAUKEGAN HARBOR            72     250/ 13/ 19   N/A
HARRISON CRIB              78     220/ 15/ 23   N/A
BURNHAM HARBOR             78     230/  9/ 17   N/A
CALUMET HARBOR             77     210/  7/ 10 1008.9R
MICHIGAN CITY              77     200/ 14/ 17   N/A
MICHIGAN CITY 6N           75 72  230/ 10/ 14   N/A           2/ 3
ST. JOSEPH                 74 72  210/ 12/ 16   N/A           3/ 3
$$

ILZ025>027-034>036-040-047-049-050-058-095>099-020300-
WEST-CENTRAL ILLINOIS

CITY           SKY/WX    TMP DP  RH WIND       PRES   REMARKS
$$

ILZ028>032-037-038-041>044-048-051>054-059>061-020300-
CENTRAL ILLINOIS

CITY           SKY/WX    TMP DP  RH WIND       PRES   REMARKS
PEORIA         NOT AVBL
SPRINGFIELD    CLOUDY    76  67  73 SW5       29.88R
TAYLORVILLE    NOT AVBL
$$

ILZ033-039-045-046-055>057-062-063-020300-
EAST-CENTRAL ILLINOIS

CITY           SKY/WX    TMP DP  RH WIND       PRES   REMARKS
$$

ILZ079-100>102-020300-
SOUTHWEST ILLINOIS

CITY           SKY/WX    TMP DP  RH WIND       PRES   REMARKS
$$

ILZ064>066-069>071-074>076-080>082-084>086-088>090-092>094-020300-
SOUTH-CENTRAL ILLINOIS

CITY           SKY/WX    TMP DP  RH WIND       PRES   REMARKS
CARBONDALE     LGT RAIN  77  72  84 SE6       29.92S
$$

ILZ067-068-072-073-078-083-087-091-020300-
SOUTHEAST ILLINOIS

CITY           SKY/WX    TMP DP  RH WIND       PRES   REMARKS
$$

ABBREVIATIONS USED IN REMARKS
   TC - TEMPERATURE IN CELSIUS
  WCI - WIND CHILL INDEX
   HX - HEAT INDEX
  VSB - VISIBILITY
$$




USA.gov is the U.S. government's official web portal to all federal, state and local government web resources and services.